THEMIS E

Last updated on Sun Jan 18 2026 00:02:38 GMT+0000 (Coordinated Universal Time)

1 30798U 07004E 26017.54561601 -.00000493 00000+0 00000+0 0 9997 2 30798 3.3477 102.5268 8383605 193.5998 230.1727 0.87838077 64598
UTC large
Height (km)
Speed (km/s)
/
Latitude / Longitude
Inclination (degrees)
Orbital Period (minutes)
Azimuth
Elevation
Range (km)
Doppler Factor

Next 0 passes for location: London (51.5072 / 0.1276)

Sorry there are no passes over London.